Location: Dead Woman Crossing
(43.5369°N, 106.3228°W)
Time: 22:27:55
(UTC+00:00)

O/OREOS (USA 219) - Pass Details

Date: 01 July 2022
Orbit: 621 x 646 km, 72.0° (Epoch: 22 May)

Event Time Altitude Azimuth Distance (km) Brightness Sun altitude
Rises 07:13:48 0° 340° (NNW) 2,963 ? -23.4°
Reaches altitude 10° 07:16:08 10° 344° (NNW) 2,051 ? -23.3°
Maximum altitude 07:20:41 57° 64° (ENE) 763 ? -23.3°
Enters shadow 07:21:37 47° 109° (ESE) 859 ? -23.3°
